GW6215 Weather Reports


time (UTC)temp
C
wind
direction
speed
KPH
gust
KPH
rain 1hr
cm
rain 24hr
cm
rain mn
cm
humidity
%
barometer
mb
20260505185024 11 48 16.1 27.4 0.00 0.33 0.33 83 1008.2
20260505184535 11 347 9.7 24.1 0.00 0.33 0.33 83 1008.3
20260505184024 11 23 11.3 24.1 0.00 0.33 0.33 83 1008.6
20260505183528 11 336 8.0 22.5 0.00 0.33 0.33 83 1008.6
20260505183036 11 358 11.3 25.7 0.00 0.33 0.33 82 1008.6
20260505182527 12 48 12.9 27.4 0.00 0.33 0.33 82 1008.3
20260505182027 12 37 9.7 27.4 0.00 0.33 0.33 82 1008.2
20260505181542 12 134 11.3 24.1 0.00 0.33 0.33 82 1008.2
20260505181027 12 32 11.3 30.6 0.00 0.33 0.33 81 1008.1
20260505180527 12 11 6.4 30.6 0.00 0.33 0.33 82 1007.9
20260505180051 12 29 9.7 30.6 0.00 0.33 0.33 81 1008.0
20260505175524 12 51 9.7 24.1 0.00 0.33 0.33 82 1007.8
20260505175031 12 40 12.9 24.1 0.00 0.33 0.33 82 1007.9
20260505174548 13 35 8.0 22.5 0.00 0.33 0.33 82 1008.0
20260505174026 12 21 8.0 22.5 0.00 0.33 0.33 82 1008.0
20260505173527 12 22 8.0 22.5 0.00 0.33 0.33 83 1008.1
20260505173036 12 34 6.4 20.9 0.00 0.33 0.33 82 1008.1
20260505172527 12 23 6.4 20.9 0.00 0.33 0.33 83 1008.1
20260505172026 12 60 9.7 22.5 0.00 0.33 0.33 83 1008.1
20260505171536 12 32 6.4 22.5 0.00 0.33 0.33 83 1008.1
20260505171027 12 34 12.9 22.5 0.00 0.33 0.33 82 1008.2
20260505170526 12 22 6.4 27.4 0.00 0.33 0.33 83 1008.1
20260505170036 12 84 9.7 27.4 0.00 0.33 0.33 83 1008.1
20260505165528 12 348 12.9 27.4 0.00 0.33 0.33 82 1007.9
20260505165029 12 26 9.7 27.4 0.00 0.33 0.33 83 1007.9
20260505164534 13 23 9.7 27.4 0.00 0.33 0.33 82 1008.0
20260505164026 13 18 12.9 27.4 0.00 0.33 0.33 81 1008.0
20260505163528 13 77 6.4 24.1 0.00 0.33 0.33 81 1007.9
20260505163040 13 56 9.7 24.1 0.00 0.33 0.33 80 1007.9
20260505162528 13 37 12.9 35.4 0.00 0.33 0.33 80 1008.0
20260505162026 13 43 9.7 35.4 0.00 0.33 0.33 80 1007.8
20260505161536 13 14 11.3 22.5 0.00 0.33 0.33 80 1008.0
20260505161027 14 7 4.8 17.7 0.00 0.33 0.33 82 1008.1
20260505160526 14 49 6.4 19.3 0.00 0.33 0.33 82 1008.2
20260505153046 15 41 4.8 16.1 0.00 0.33 0.33 81 1007.2
20260505152524 15 6 6.4 16.1 0.00 0.33 0.33 81 1007.1
20260505152026 15 13 4.8 17.7 0.00 0.33 0.33 80 1007.1
20260505151545 15 64 9.7 17.7 0.00 0.33 0.33 81 1007.0
20260505151027 15 26 8.0 17.7 0.00 0.33 0.33 81 1007.0
20260505150526 15 7 9.7 17.7 0.00 0.33 0.33 81 1006.9
20260505140526 14 356 4.8 9.7 0.00 0.33 0.33 84 1007.4
20260505125026 14 359 3.2 11.3 0.00 0.33 0.33 88 1006.8
20260505124542 14 27 6.4 16.1 0.00 0.33 0.33 88 1006.7
20260505124024 14 37 4.8 16.1 0.00 0.33 0.33 87 1006.8
20260505123524 14 42 4.8 12.9 0.00 0.33 0.33 87 1006.8
20260505123054 14 36 3.2 12.9 0.00 0.33 0.33 87 1006.7
20260505122527 14 70 4.8 11.3 0.00 0.33 0.33 88 1006.6
20260505122028 14 32 0.0 9.7 0.00 0.33 0.33 90 1006.4
20260505121535 14 0 1.6 12.9 0.00 0.33 0.33 90 1006.2
20260505121028 14 0 1.6 12.9 0.00 0.33 0.33 90 1006.2
20260505120529 14 15 6.4 12.9 0.00 0.33 0.33 90 1006.5
20260505120034 14 51 0.0 6.4 0.00 0.33 0.33 90 1006.5
20260505115524 15 37 0.0 14.5 0.00 0.33 0.33 90 1006.2
20260505115024 15 0 3.2 14.5 0.00 0.33 0.33 90 1006.2
20260505114545 15 63 3.2 9.7 0.00 0.33 0.33 90 1006.2
20260505114027 15 46 1.6 19.3 0.00 0.33 0.33 90 1006.4
20260505113527 15 48 1.6 19.3 0.00 0.33 0.33 91 1006.3
20260505113042 15 23 1.6 9.7 0.00 0.33 0.33 92 1005.9
20260505112526 15 39 3.2 9.7 0.00 0.33 0.33 92 1005.9
20260505112028 15 323 3.2 9.7 0.00 0.33 0.33 93 1005.4
20260505111553 15 77 1.6 9.7 0.03 0.33 0.33 93 1005.3
20260505111027 15 60 1.6 4.8 0.03 0.33 0.33 93 1005.7
20260505110528 15 0 0.0 3.2 0.03 0.33 0.33 93 1006.6
20260505102026 15 294 4.8 12.9 0.03 0.33 0.33 93 1006.1
20260505101544 15 333 4.8 12.9 0.00 0.30 0.30 93 1005.6
20260505101027 15 30 0.0 3.2 0.00 0.30 0.30 92 1005.2
20260505100529 15 0 0.0 3.2 0.00 0.30 0.30 91 1005.1
20260505100038 15 207 1.6 1.6 0.03 0.30 0.30 91 1005.1
20260505095532 15 0 0.0 1.6 0.03 0.30 0.30 90 1004.8
20260505095027 15 0 0.0 1.6 0.05 0.30 0.30 90 1004.9
20260505094539 15 0 0.0 1.6 0.05 0.30 0.30 89 1005.0
20260505094029 16 0 0.0 6.4 0.08 0.30 0.30 87 1004.7
20260505093527 16 0 0.0 12.9 0.10 0.30 0.30 86 1004.7
20260505093038 16 0 3.2 17.7 0.15 0.30 0.30 86 1004.2
20260505092528 16 214 8.0 20.9 0.18 0.30 0.30 86 1004.2
20260505092028 15 195 12.9 24.1 0.20 0.30 0.30 87 1004.0
20260505091536 15 192 12.9 25.7 0.23 0.30 0.30 88 1003.4
20260505091027 15 163 9.7 25.7 0.23 0.30 0.30 89 1003.2
20260505090527 15 184 14.5 24.1 0.25 0.30 0.30 89 1003.4
20260505090050 15 169 11.3 22.5 0.23 0.28 0.28 90 1004.2
20260505085528 15 124 1.6 6.4 0.23 0.25 0.25 91 1004.8
20260505085027 16 95 1.6 3.2 0.25 0.25 0.25 90 1005.1
20260505084538 16 106 0.0 6.4 0.25 0.25 0.25 90 1005.6
20260505084026 16 0 1.6 16.1 0.23 0.23 0.23 88 1006.0
20260505083528 16 293 6.4 22.5 0.18 0.18 0.18 88 1006.1
20260505083045 16 244 9.7 22.5 0.15 0.15 0.15 87 1006.0
20260505082527 16 265 4.8 17.7 0.13 0.13 0.13 87 1005.9
20260505082028 16 293 3.2 14.5 0.10 0.10 0.10 87 1005.9
20260505081545 16 316 6.4 27.4 0.08 0.08 0.08 87 1005.8
20260505081027 17 295 11.3 29.0 0.08 0.08 0.08 85 1005.4
20260505080527 17 248 16.1 29.0 0.05 0.05 0.05 84 1005.1
20260505080042 17 212 12.9 22.5 0.05 0.05 0.05 84 1005.0
20260505075528 17 275 9.7 33.8 0.03 0.03 0.03 82 1005.2
20260505075027 17 298 12.9 33.8 0.00 0.00 0.00 80 1005.4
20260505074544 17 279 11.3 29.0 0.00 0.00 0.00 79 1005.4
20260505074027 18 266 14.5 29.0 0.00 0.00 0.00 77 1005.3
20260505073528 18 217 11.3 29.0 0.00 0.00 0.00 76 1005.2
20260505073040 18 178 12.9 29.0 0.00 0.00 0.00 75 1005.4
20260505072530 18 225 14.5 29.0 0.00 0.00 0.00 74 1005.3
20260505072027 18 180 8.0 16.1 0.00 0.00 0.00 75 1005.2
20260505071539 18 200 9.7 14.5 0.00 0.00 0.00 75 1005.5
20260505071029 17 207 6.4 14.5 0.00 0.00 0.00 75 1005.4
20260505070530 18 229 3.2 14.5 0.00 0.00 0.00 75 1005.3
20260505070045 18 221 8.0 16.1 0.00 0.00 0.00 74 1005.1
20260505065530 18 170 8.0 16.1 0.00 0.00 0.00 74 1005.2
20260505065027 17 202 4.8 12.9 0.00 0.00 0.00 74 1005.0
20260505064552 17 171 6.4 11.3 0.00 0.00 0.00 75 1005.4
20260505064028 17 153 3.2 12.9 0.00 0.00 0.00 75 1005.6
20260505063529 17 127 3.2 14.5 0.00 0.00 0.00 75 1005.7
20260505063035 17 177 4.8 14.5 0.00 0.00 0.00 75 1005.8
20260505062530 17 238 1.6 9.7 0.00 0.00 0.00 75 1005.9
20260505062030 17 208 1.6 11.3 0.00 0.00 0.00 75 1005.8
20260505061544 17 165 3.2 11.3 0.00 0.00 0.00 75 1005.9
20260505061031 17 198 4.8 11.3 0.00 0.00 0.00 75 1005.9
20260505060529 17 168 3.2 11.3 0.00 0.00 0.00 75 1006.1
20260505060038 17 238 3.2 11.3 0.00 0.00 0.00 75 1005.9
20260505055530 17 195 3.2 9.7 0.00 0.00 0.00 74 1005.9
20260505055028 17 147 3.2 11.3 0.00 0.00 0.00 74 1005.9
20260505054537 17 0 3.2 11.3 0.00 0.00 0.00 74 1006.0
20260505054027 17 153 3.2 8.0 0.00 0.00 0.00 74 1005.8
20260505053529 17 177 3.2 9.7 0.00 0.00 0.00 74 1005.9
20260505053049 18 195 3.2 9.7 0.00 0.00 0.00 74 1005.9
20260505052529 18 176 1.6 8.0 0.00 0.00 0.00 74 1005.9
20260505052029 18 122 3.2 8.0 0.00 0.00 0.00 74 1005.8
20260505051535 18 0 3.2 11.3 0.00 0.00 0.00 74 1005.9
20260505051030 18 193 4.8 12.9 0.00 0.00 0.00 73 1006.0
20260505050533 18 113 6.4 12.9 0.00 0.00 0.00 73 1006.1
20260505041536 18 0 0.0 4.8 0.00 0.00 0.00 70 1006.6
20260505041027 18 121 0.0 6.4 0.00 0.00 0.00 70 1006.6
20260505040528 18 130 0.0 6.4 0.00 0.00 0.00 70 1006.7
20260505040036 19 144 0.0 4.8 0.00 0.00 0.00 69 1006.7
20260505035527 19 0 0.0 9.7 0.00 0.00 0.00 69 1006.7
20260505035027 19 205 1.6 9.7 0.00 0.00 0.00 69 1006.8
20260505034536 19 195 1.6 8.0 0.00 0.00 0.00 68 1006.9
20260505034026 19 186 1.6 8.0 0.00 0.00 0.00 68 1007.0
20260505033531 20 168 4.8 8.0 0.00 0.00 0.00 68 1006.9
20260505033037 20 214 1.6 8.0 0.00 0.00 0.00 68 1006.9
20260505032528 20 0 3.2 9.7 0.00 0.00 0.00 67 1006.9
20260505032030 20 217 3.2 14.5 0.00 0.00 0.00 67 1006.9
20260505031537 20 208 6.4 14.5 0.00 0.00 0.00 66 1007.0
20260505031027 20 188 6.4 16.1 0.00 0.00 0.00 65 1006.8
20260505030527 20 200 6.4 16.1 0.00 0.00 0.00 65 1007.0
20260505030035 20 211 9.7 17.7 0.00 0.00 0.00 65 1006.9
20260505025529 20 220 8.0 20.9 0.00 0.00 0.00 65 1006.8
20260505025027 21 224 9.7 20.9 0.00 0.00 0.00 64 1006.8
20260505024543 21 205 9.7 17.7 0.00 0.00 0.00 64 1006.8
20260505024027 21 205 9.7 20.9 0.00 0.00 0.00 64 1006.7
20260505023527 21 213 11.3 20.9 0.00 0.00 0.00 64 1006.7
20260505023046 21 189 8.0 19.3 0.00 0.00 0.00 64 1006.6
20260505022528 21 174 9.7 19.3 0.00 0.00 0.00 63 1006.7
20260505022028 21 218 12.9 19.3 0.00 0.00 0.00 63 1006.6
20260505021544 21 175 11.3 19.3 0.00 0.00 0.00 63 1006.4
20260505021026 21 211 6.4 14.5 0.00 0.00 0.00 64 1006.3
20260505020527 21 207 6.4 12.9 0.00 0.00 0.00 64 1006.3
20260505020035 21 195 4.8 11.3 0.00 0.00 0.00 64 1006.2
20260505015528 21 206 4.8 11.3 0.00 0.00 0.00 63 1006.1
20260505015030 21 195 3.2 6.4 0.00 0.00 0.00 63 1006.0
20260505014541 21 166 3.2 6.4 0.00 0.00 0.00 63 1005.9
20260505014024 21 195 3.2 8.0 0.00 0.00 0.00 62 1005.9
20260505013524 21 175 4.8 8.0 0.00 0.00 0.00 61 1005.7
20260505013036 21 193 1.6 11.3 0.00 0.00 0.00 61 1005.6
20260505012527 22 198 3.2 11.3 0.00 0.00 0.00 61 1005.5
20260505012025 22 203 3.2 11.3 0.00 0.00 0.00 60 1005.4
20260505011541 22 193 3.2 9.7 0.00 0.00 0.00 60 1005.5
20260505011028 22 182 3.2 11.3 0.00 0.00 0.00 59 1005.4
20260505010525 22 203 4.8 11.3 0.00 0.00 0.00 59 1005.4
20260505010042 22 197 4.8 11.3 0.00 0.00 0.00 58 1005.3
20260505005526 22 172 3.2 9.7 0.00 0.00 0.00 58 1005.3
20260505005025 22 218 6.4 12.9 0.00 0.00 0.00 57 1005.3
20260505004536 22 212 6.4 12.9 0.00 0.00 0.00 57 1005.3
20260505004025 22 213 3.2 9.7 0.00 0.00 0.00 56 1005.2
20260505003529 23 203 6.4 11.3 0.00 0.00 0.00 56 1005.2
20260505003035 23 207 4.8 12.9 0.00 0.00 0.00 55 1005.2
20260505002527 23 206 3.2 12.9 0.00 0.00 0.00 55 1005.2
20260505002024 23 212 6.4 14.5 0.00 0.00 0.00 54 1005.2
20260505001550 23 210 6.4 16.1 0.00 0.00 0.00 53 1005.2
20260505001027 24 221 6.4 20.9 0.00 0.00 0.00 52 1005.1
20260505000524 24 205 12.9 20.9 0.00 0.00 0.00 52 1005.2
20260505000049 24 181 11.3 25.7 0.00 0.00 0.00 51 1005.2
20260504235527 25 204 9.7 25.7 0.00 0.00 0.00 51 1005.2
20260504235029 25 203 14.5 25.7 0.00 0.00 0.00 50 1005.0
20260504234541 25 218 12.9 24.1 0.00 0.00 0.00 50 1005.0
20260504234028 25 211 16.1 24.1 0.00 0.00 0.00 49 1004.9
20260504233525 25 195 11.3 24.1 0.00 0.00 0.00 49 1004.9
20260504233036 25 139 12.9 27.4 0.00 0.00 0.00 49 1005.0
20260504232525 25 203 12.9 29.0 0.00 0.00 0.00 48 1004.9
20260504232024 25 234 12.9 29.0 0.00 0.00 0.00 49 1005.0
20260504231553 26 205 17.7 25.7 0.00 0.00 0.00 48 1005.2
20260504231027 26 199 14.5 30.6 0.00 0.00 0.00 48 1005.1
20260504230525 26 224 17.7 32.2 0.00 0.00 0.00 48 1005.2
20260504230035 26 224 17.7 32.2 0.00 0.00 0.00 48 1005.1
20260504225525 26 231 19.3 30.6 0.00 0.00 0.00 48 1005.1
20260504225029 26 222 14.5 33.8 0.00 0.00 0.00 49 1005.1
20260504224538 26 219 17.7 33.8 0.00 0.00 0.00 48 1005.2
20260504224032 26 207 20.9 33.8 0.00 0.00 0.00 48 1005.2
20260504223529 26 231 12.9 27.4 0.00 0.00 0.00 50 1005.2
20260504223037 26 210 14.5 29.0 0.00 0.00 0.00 47 1005.2
20260504222526 26 212 17.7 38.6 0.00 0.00 0.00 48 1005.1
20260504222025 26 255 20.9 38.6 0.00 0.00 0.00 49 1005.1
20260504221535 26 213 19.3 27.4 0.00 0.00 0.00 48 1005.2
20260504221028 26 175 17.7 37.0 0.00 0.00 0.00 46 1005.3
20260504220528 26 220 17.7 37.0 0.00 0.00 0.00 49 1005.3
20260504220037 26 211 20.9 35.4 0.00 0.00 0.00 47 1005.3
20260504215529 26 235 19.3 35.4 0.00 0.00 0.00 48 1005.2
20260504215031 26 226 19.3 35.4 0.00 0.00 0.00 47 1005.3
20260504214535 26 195 19.3 35.4 0.00 0.00 0.00 47 1005.3
20260504214028 26 188 12.9 29.0 0.00 0.00 0.00 48 1005.3
20260504213529 26 189 16.1 33.8 0.00 0.00 0.00 48 1005.5
20260504213041 26 214 16.1 33.8 0.00 0.00 0.00 49 1005.5
20260504212532 26 203 17.7 30.6 0.00 0.00 0.00 49 1005.5
20260504212028 26 230 14.5 27.4 0.00 0.00 0.00 48 1005.6
20260504211547 26 208 16.1 33.8 0.00 0.00 0.00 51 1005.6
20260504211027 26 212 20.9 40.2 0.00 0.00 0.00 49 1005.7
20260504210528 26 205 14.5 40.2 0.00 0.00 0.00 48 1005.7
20260504210054 26 145 17.7 32.2 0.00 0.00 0.00 49 1005.8
20260504205526 26 245 17.7 32.2 0.00 0.00 0.00 51 1005.8
20260504205025 26 237 16.1 30.6 0.00 0.00 0.00 49 1005.9
20260504204541 26 216 11.3 30.6 0.00 0.00 0.00 50 1005.9
20260504204027 26 176 14.5 30.6 0.00 0.00 0.00 50 1006.0
20260504203527 26 235 20.9 30.6 0.00 0.00 0.00 48 1006.0
20260504203037 26 225 16.1 32.2 0.00 0.00 0.00 49 1006.1
20260504202529 26 194 16.1 32.2 0.00 0.00 0.00 50 1006.3
20260504202029 26 219 20.9 33.8 0.00 0.00 0.00 49 1006.4
20260504201535 26 228 17.7 33.8 0.00 0.00 0.00 49 1006.4
20260504201029 26 189 20.9 38.6 0.00 0.00 0.00 49 1006.5
20260504200529 25 198 19.3 38.6 0.00 0.00 0.00 50 1006.5
20260504200040 26 217 17.7 29.0 0.00 0.00 0.00 50 1006.5
20260504195527 26 219 16.1 35.4 0.00 0.00 0.00 52 1006.6
20260504195027 25 229 19.3 35.4 0.00 0.00 0.00 52 1006.7
20260504194557 25 191 20.9 35.4 0.00 0.00 0.00 50 1006.7
20260504194028 25 224 24.1 35.4 0.00 0.00 0.00 50 1006.7
20260504193528 25 189 17.7 35.4 0.00 0.00 0.00 49 1006.6
20260504193035 25 231 19.3 32.2 0.00 0.00 0.00 53 1006.6
20260504192528 25 216 16.1 35.4 0.00 0.00 0.00 52 1006.7
20260504192029 25 198 16.1 38.6 0.00 0.00 0.00 52 1006.7
20260504191548 25 212 22.5 38.6 0.00 0.00 0.00 49 1006.7
20260504191028 25 225 17.7 38.6 0.00 0.00 0.00 51 1006.7
20260504190527 25 239 17.7 37.0 0.00 0.00 0.00 50 1006.8
20260504190043 25 213 22.5 37.0 0.00 0.00 0.00 50 1006.8
20260504185530 25 200 19.3 32.2 0.00 0.00 0.00 51 1006.8